Location: Cheyres
(46.8153°N, 6.7877°E)
Time: 11:03:40
(UTC+00:00)

Gbstr 26 Del rocket - Pass Details

Date: 25 September 2021
Orbit: 492 x 1263 km, 51.8° (Epoch: 18 October)

Event Time Altitude Azimuth Distance (km) Brightness Sun altitude
Rises 17:46:20 0° 163° (SSE) 3,812 6.9 -4.6°
Reaches altitude 10° 17:51:25 10° 132° (SE) 3,037 6.1 -5.5°
Maximum altitude 17:53:26 11° 116° (ESE) 3,001 6.0 -5.8°
Drops below altitude 10° 17:55:29 10° 100° (E) 3,145 6.0 -6.2°
Enters shadow 17:57:33 - 87° (E) 3,446 6.2 -6.5°
